EW0871 Weather Reports


time (UTC)temp
C
wind
direction
speed
KPH
gust
KPH
rain 1hr
cm
rain 24hr
cm
rain mn
cm
humidity
%
barometer
mb
20260505101012 6 0 0.0 0.0 0.00 0.00 0.00 89 1018.6
20260505100507 6 0 0.0 0.0 0.00 0.00 0.00 88 1018.5
20260505100009 6 0 0.0 0.0 0.00 0.00 0.00 88 1018.5
20260505095510 6 0 0.0 0.0 0.00 0.00 0.00 87 1018.4
20260505095008 6 0 0.0 0.0 0.00 0.00 0.00 88 1018.4
20260505094508 6 0 0.0 0.0 0.00 0.00 0.00 87 1018.3
20260505094014 7 0 0.0 0.0 0.00 0.00 0.00 87 1018.3
20260505093512 7 0 0.0 0.0 0.00 0.00 0.00 87 1018.3
20260505092010 7 0 0.0 0.0 0.00 0.00 0.00 85 1018.3
20260505091510 7 0 0.0 0.0 0.00 0.00 0.00 85 1018.3
20260505091009 7 0 0.0 0.0 0.00 0.00 0.00 84 1018.2
20260505090508 7 0 0.0 0.0 0.00 0.00 0.00 84 1018.3
20260505090011 7 0 0.0 0.0 0.00 0.00 0.00 83 1018.2
20260505085511 8 0 0.0 0.0 0.00 0.00 0.00 83 1018.1
20260505085009 8 0 0.0 0.0 0.00 0.00 0.00 83 1018.1
20260505084509 8 0 0.0 0.0 0.00 0.00 0.00 83 1018.1
20260505084008 8 0 0.0 0.0 0.00 0.00 0.00 82 1018.1
20260505083508 8 0 0.0 0.0 0.00 0.00 0.00 80 1018.1
20260505083008 8 0 0.0 0.0 0.00 0.00 0.00 80 1018.1
20260505082507 9 0 0.0 0.0 0.00 0.00 0.00 79 1018.0
20260505082007 10 0 0.0 0.0 0.00 0.00 0.00 79 1017.9
20260505081507 10 0 0.0 0.0 0.00 0.00 0.00 79 1017.9
20260505080512 10 0 0.0 0.0 0.00 0.00 0.00 80 1017.8
20260505080010 9 0 0.0 0.0 0.00 0.00 0.00 81 1017.8
20260505075508 9 0 0.0 0.0 0.00 0.00 0.00 80 1017.8
20260505075009 9 0 0.0 0.0 0.00 0.00 0.00 78 1017.8
20260505074508 10 0 0.0 0.0 0.00 0.00 0.00 78 1017.7
20260505074009 10 0 0.0 0.0 0.00 0.00 0.00 77 1017.7
20260505073007 10 0 0.0 0.0 0.00 0.00 0.00 77 1017.5
20260505072507 10 0 0.0 0.0 0.00 0.00 0.00 78 1017.5
20260505072008 10 0 0.0 0.0 0.00 0.00 0.00 78 1017.7
20260505071508 10 0 0.0 0.0 0.00 0.00 0.00 79 1017.8
20260505071010 10 0 0.0 0.0 0.00 0.00 0.00 79 1017.9
20260505070558 10 0 0.0 0.0 0.00 0.00 0.00 78 1017.9
20260505070010 10 0 0.0 0.0 0.00 0.00 0.00 78 1018.0
20260505065008 11 0 0.0 0.0 0.00 0.00 0.00 76 1017.8
20260505064007 11 0 0.0 3.2 0.00 0.00 0.00 76 1017.9
20260505063509 11 0 0.0 3.2 0.00 0.00 0.00 78 1018.0
20260505063009 10 203 0.0 6.4 0.00 0.00 0.00 79 1018.1
20260505062508 10 207 1.6 6.4 0.00 0.00 0.00 81 1018.1
20260505062011 10 0 0.0 0.0 0.00 0.00 0.00 81 1018.1
20260505061511 10 0 0.0 0.0 0.00 0.00 0.00 81 1018.2
20260505060508 10 0 0.0 1.6 0.00 0.00 0.00 81 1018.2
20260505060012 10 0 0.0 3.2 0.00 0.00 0.00 80 1018.2
20260505055507 10 182 0.0 3.2 0.00 0.00 0.00 80 1018.2
20260505055007 10 0 0.0 0.0 0.00 0.00 0.00 79 1018.2
20260505054508 10 0 0.0 0.0 0.00 0.00 0.00 78 1018.2
20260505054008 10 0 0.0 0.0 0.00 0.00 0.00 79 1018.3
20260505053008 10 0 0.0 0.0 0.00 0.00 0.00 76 1018.1
20260505052508 11 0 0.0 0.0 0.00 0.00 0.00 76 1018.2
20260505052007 11 0 0.0 0.0 0.00 0.00 0.00 77 1018.2
20260505051507 11 0 0.0 0.0 0.00 0.00 0.00 77 1018.1
20260505051010 11 0 0.0 0.0 0.00 0.00 0.00 78 1018.2
20260505050508 10 0 0.0 0.0 0.00 0.00 0.00 78 1018.3
20260505041508 11 0 0.0 0.0 0.00 0.00 0.00 73 1018.2
20260505041007 12 0 0.0 0.0 0.00 0.00 0.00 72 1018.3
20260505035508 12 0 0.0 0.0 0.00 0.00 0.00 71 1018.4
20260505035007 12 0 0.0 0.0 0.00 0.00 0.00 70 1018.4
20260505034507 12 0 0.0 0.0 0.00 0.00 0.00 70 1018.4
20260505033007 12 0 0.0 0.0 0.00 0.00 0.00 68 1018.5
20260505032506 13 0 0.0 0.0 0.00 0.00 0.00 67 1018.5
20260505032006 13 0 0.0 0.0 0.00 0.00 0.00 66 1018.6
20260505031009 13 0 0.0 0.0 0.00 0.00 0.00 64 1018.6
20260505030509 13 0 0.0 0.0 0.00 0.00 0.00 63 1018.6
20260505030007 14 0 0.0 0.0 0.00 0.00 0.00 63 1018.6
20260505025507 14 0 0.0 0.0 0.00 0.00 0.00 62 1018.6
20260505024509 14 0 0.0 0.0 0.00 0.00 0.00 61 1018.5
20260505024006 14 0 0.0 0.0 0.00 0.00 0.00 61 1018.5
20260505023007 15 0 0.0 3.2 0.00 0.00 0.00 60 1018.4
20260505022506 15 183 0.0 4.8 0.00 0.00 0.00 60 1018.3
20260505022007 15 188 1.6 4.8 0.00 0.00 0.00 60 1018.3
20260505021007 15 175 0.0 3.2 0.00 0.00 0.00 59 1018.3
20260505020011 15 0 0.0 1.6 0.00 0.00 0.00 58 1018.2
20260505015006 15 193 1.6 3.2 0.00 0.00 0.00 57 1018.1
20260505014507 16 190 0.0 3.2 0.00 0.00 0.00 57 1018.1
20260505014007 16 0 0.0 1.6 0.00 0.00 0.00 56 1018.0
20260505013507 16 0 0.0 0.0 0.00 0.00 0.00 56 1017.9
20260505013007 16 0 0.0 3.2 0.00 0.00 0.00 55 1017.8
20260505012506 16 169 0.0 3.2 0.00 0.00 0.00 55 1017.7
20260505012007 16 0 0.0 4.8 0.00 0.00 0.00 54 1017.7
20260505011508 16 192 0.0 4.8 0.00 0.00 0.00 54 1017.6
20260505010507 17 0 0.0 4.8 0.00 0.00 0.00 54 1017.6
20260505010008 17 174 1.6 4.8 0.00 0.00 0.00 54 1017.6
20260505005508 17 0 0.0 3.2 0.00 0.00 0.00 53 1017.6
20260505004508 17 191 0.0 4.8 0.00 0.00 0.00 52 1017.3
20260505004007 17 178 0.0 4.8 0.00 0.00 0.00 52 1017.3
20260505003507 17 172 1.6 6.4 0.00 0.00 0.00 52 1017.3
20260505003006 18 173 3.2 8.0 0.00 0.00 0.00 51 1017.2
20260505002507 18 172 3.2 8.0 0.00 0.00 0.00 51 1017.1
20260505002007 18 169 1.6 6.4 0.00 0.00 0.00 51 1017.3
20260505001507 18 165 3.2 8.0 0.00 0.00 0.00 50 1017.2
20260505001007 18 163 3.2 8.0 0.00 0.00 0.00 50 1017.2
20260505000010 19 148 3.2 11.3 0.00 0.00 0.00 49 1017.1
20260504235007 19 138 1.6 9.7 0.00 0.00 0.00 48 1017.0
20260504234518 20 143 3.2 9.7 0.00 0.00 0.00 48 1016.8
20260504234007 20 144 4.8 9.7 0.00 0.00 0.00 47 1016.8
20260504233508 20 136 3.2 14.5 0.00 0.00 0.00 47 1016.8
20260504233007 20 137 6.4 14.5 0.00 0.00 0.00 46 1016.8
20260504232509 20 151 4.8 14.5 0.00 0.00 0.00 45 1016.7
20260504232007 20 149 8.0 14.5 0.00 0.00 0.00 44 1016.7
20260504231507 21 135 4.8 12.9 0.00 0.00 0.00 44 1016.7
20260504231007 21 133 4.8 12.9 0.00 0.00 0.00 43 1016.6
20260504230508 21 141 6.4 11.3 0.00 0.00 0.00 43 1016.6
20260504230008 21 151 4.8 9.7 0.00 0.00 0.00 42 1016.6
20260504225510 21 151 3.2 11.3 0.00 0.00 0.00 43 1016.6
20260504225012 22 163 3.2 14.5 0.00 0.00 0.00 41 1016.5
20260504224506 22 175 4.8 14.5 0.00 0.00 0.00 41 1016.5
20260504224007 22 166 6.4 14.5 0.00 0.00 0.00 40 1016.5
20260504223507 22 159 8.0 14.5 0.00 0.00 0.00 39 1016.6
20260504223008 22 155 4.8 14.5 0.00 0.00 0.00 39 1016.6
20260504222507 22 158 4.8 12.9 0.00 0.00 0.00 39 1016.7
20260504222008 23 171 3.2 17.7 0.00 0.00 0.00 39 1016.6
20260504221508 23 159 6.4 17.7 0.00 0.00 0.00 38 1016.7
20260504221006 23 150 6.4 11.3 0.00 0.00 0.00 37 1016.7
20260504220507 23 160 4.8 14.5 0.00 0.00 0.00 38 1016.7
20260504220009 23 157 8.0 14.5 0.00 0.00 0.00 36 1016.7
20260504215507 24 158 3.2 11.3 0.00 0.00 0.00 37 1016.7
20260504215006 24 151 4.8 11.3 0.00 0.00 0.00 36 1016.6
20260504214507 24 143 6.4 11.3 0.00 0.00 0.00 36 1016.6
20260504214007 24 153 4.8 11.3 0.00 0.00 0.00 37 1016.6
20260504213508 24 168 3.2 11.3 0.00 0.00 0.00 35 1016.7
20260504213006 25 171 3.2 11.3 0.00 0.00 0.00 34 1016.5
20260504212007 25 175 1.6 11.3 0.00 0.00 0.00 32 1016.6
20260504211507 25 202 4.8 17.7 0.00 0.00 0.00 30 1016.5
20260504211007 24 211 4.8 19.3 0.00 0.00 0.00 32 1016.5
20260504210506 25 208 8.0 19.3 0.00 0.00 0.00 30 1016.5
20260504210009 25 204 1.6 19.3 0.00 0.00 0.00 31 1016.6
20260504205507 25 202 4.8 19.3 0.00 0.00 0.00 28 1016.7
20260504205006 25 205 1.6 19.3 0.00 0.00 0.00 30 1016.5
20260504204506 25 204 3.2 19.3 0.00 0.00 0.00 30 1016.7
20260504203507 25 201 4.8 14.5 0.00 0.00 0.00 31 1016.8
20260504203006 25 205 8.0 14.5 0.00 0.00 0.00 29 1016.8
20260504202507 25 213 6.4 14.5 0.00 0.00 0.00 30 1016.7
20260504202006 25 207 1.6 11.3 0.00 0.00 0.00 31 1016.8
20260504201507 25 207 6.4 16.1 0.00 0.00 0.00 31 1016.9
20260504201007 24 210 0.0 16.1 0.00 0.00 0.00 34 1017.0
20260504200507 24 199 6.4 16.1 0.00 0.00 0.00 31 1017.0
20260504200015 24 190 4.8 16.1 0.00 0.00 0.00 31 1017.1
20260504195508 25 186 8.0 16.1 0.00 0.00 0.00 30 1017.0
20260504194507 25 188 4.8 16.1 0.00 0.00 0.00 31 1017.1
20260504194008 25 199 3.2 14.5 0.00 0.00 0.00 31 1017.1
20260504193506 25 198 4.8 9.7 0.00 0.00 0.00 28 1017.2
20260504193007 25 200 4.8 9.7 0.00 0.00 0.00 30 1017.4
20260504192006 25 0 0.0 3.2 0.00 0.00 0.00 33 1017.5
20260504191507 25 212 1.6 8.0 0.00 0.00 0.00 30 1017.5
20260504191008 25 194 1.6 8.0 0.00 0.00 0.00 31 1017.7
20260504190507 24 194 0.0 6.4 0.00 0.00 0.00 35 1017.7
20260504185508 23 198 6.4 12.9 0.00 0.00 0.00 31 1017.9
20260504185006 23 349 1.6 6.4 0.00 0.00 0.00 32 1017.9
20260504184508 23 8 3.2 6.4 0.00 0.00 0.00 30 1017.9
20260504184007 24 153 0.0 6.4 0.00 0.00 0.00 35 1018.1
20260504183507 23 230 0.0 6.4 0.00 0.00 0.00 40 1018.2
20260504182507 23 320 3.2 6.4 0.00 0.00 0.00 34 1018.3
20260504182007 23 0 0.0 6.4 0.00 0.00 0.00 34 1018.4
20260504181507 23 237 1.6 4.8 0.00 0.00 0.00 36 1018.5
20260504181009 22 0 0.0 6.4 0.00 0.00 0.00 38 1018.5
20260504180508 22 143 1.6 8.0 0.00 0.00 0.00 34 1018.6
20260504180015 22 173 3.2 9.7 0.00 0.00 0.00 34 1018.5
20260504175508 22 194 3.2 9.7 0.00 0.00 0.00 36 1018.7
20260504175007 22 196 3.2 9.7 0.00 0.00 0.00 36 1018.7
20260504174506 22 299 1.6 6.4 0.00 0.00 0.00 36 1018.7
20260504173508 22 191 1.6 8.0 0.00 0.00 0.00 36 1018.9
20260504173005 22 335 1.6 8.0 0.00 0.00 0.00 39 1019.0
20260504172506 22 333 0.0 4.8 0.00 0.00 0.00 38 1019.0
20260504172006 21 349 0.0 11.3 0.00 0.00 0.00 40 1019.2
20260504171506 21 9 1.6 11.3 0.00 0.00 0.00 37 1019.1
20260504171006 21 13 3.2 12.9 0.00 0.00 0.00 40 1019.3
20260504170507 21 6 4.8 12.9 0.00 0.00 0.00 39 1019.3
20260504151007 17 12 6.4 14.5 0.00 0.00 0.00 41 1020.8
20260504150507 17 7 8.0 16.1 0.00 0.00 0.00 42 1020.9
20260504141006 12 12 4.8 8.0 0.00 0.00 0.00 66 1021.1
20260504140507 12 22 3.2 4.8 0.00 0.00 0.00 70 1021.3
20260504130508 6 0 0.0 0.0 0.00 0.00 0.00 92 1021.2
20260504110507 1 0 0.0 0.0 0.00 0.00 0.00 94 1020.3